TimeEDT,TemperatureF,Dew PointF,Humidity,Sea Level PressureIn,VisibilityMPH,Wind Direction,Wind SpeedMPH,Gust SpeedMPH,PrecipitationIn,Events,Conditions,WindDirDegrees,DateUTC
12:51 AM,39.0,33.1,79,30.05,-9999.0,NW,10.4,-,N/A,,Unknown,320,2012-11-03 04:51:00
1:51 AM,39.9,30.9,70,30.06,-9999.0,North,12.7,27.6,N/A,,Unknown,360,2012-11-03 05:51:00
2:51 AM,39.9,30.0,68,30.07,-9999.0,Variable,6.9,-,N/A,,Unknown,0,2012-11-03 06:51:00
3:51 AM,39.9,32.0,73,30.08,-9999.0,North,9.2,20.7,N/A,,Unknown,350,2012-11-03 07:51:00
4:51 AM,39.0,30.0,70,30.09,-9999.0,North,5.8,-,N/A,,Unknown,350,2012-11-03 08:51:00
5:51 AM,39.9,30.0,68,30.10,-9999.0,North,8.1,-,N/A,,Unknown,360,2012-11-03 09:51:00
6:51 AM,39.0,30.9,73,30.11,-9999.0,North,10.4,21.9,N/A,,Unknown,360,2012-11-03 10:51:00
7:51 AM,39.0,30.0,70,30.13,-9999.0,North,10.4,20.7,N/A,,Unknown,360,2012-11-03 11:51:00
8:51 AM,37.0,33.1,86,30.15,-9999.0,NNW,5.8,-,0.01,,Unknown,340,2012-11-03 12:51:00
9:51 AM,37.9,32.0,79,30.15,-9999.0,NNW,6.9,-,0.01,,Unknown,340,2012-11-03 13:51:00
10:51 AM,37.0,33.1,86,30.17,-9999.0,NW,10.4,18.4,N/A,,Unknown,310,2012-11-03 14:51:00
11:51 AM,36.0,33.1,89,30.18,-9999.0,WNW,12.7,19.6,N/A,,Unknown,300,2012-11-03 15:51:00
12:51 PM,36.0,33.1,89,30.18,-9999.0,NW,8.1,17.3,0.01,,Unknown,310,2012-11-03 16:51:00
1:51 PM,37.0,33.1,86,30.17,-9999.0,NW,9.2,-,0.04,,Unknown,320,2012-11-03 17:51:00
2:51 PM,37.9,33.1,83,30.17,-9999.0,NNW,5.8,-,0.01,,Unknown,330,2012-11-03 18:51:00
3:51 PM,37.9,30.9,76,30.18,-9999.0,NNW,6.9,-,N/A,,Unknown,330,2012-11-03 19:51:00
4:51 PM,37.0,30.0,76,30.17,-9999.0,NW,6.9,-,N/A,,Unknown,310,2012-11-03 20:51:00
5:51 PM,37.0,28.9,73,30.18,-9999.0,NW,8.1,-,N/A,,Unknown,310,2012-11-03 21:51:00
6:51 PM,37.0,28.0,70,30.18,-9999.0,NW,5.8,-,N/A,,Unknown,310,2012-11-03 22:51:00
7:51 PM,37.0,28.0,70,30.19,-9999.0,NNW,4.6,-,N/A,,Unknown,330,2012-11-03 23:51:00
8:51 PM,37.0,28.0,70,30.20,-9999.0,Variable,6.9,-,N/A,,Unknown,0,2012-11-04 00:51:00
9:51 PM,37.0,26.1,65,30.19,-9999.0,North,6.9,18.4,N/A,,Unknown,10,2012-11-04 01:51:00
10:51 PM,37.0,28.0,70,30.19,-9999.0,NNW,4.6,-,N/A,,Unknown,330,2012-11-04 02:51:00
11:51 PM,37.0,27.0,67,30.18,-9999.0,Calm,Calm,-,N/A,,Unknown,0,2012-11-04 03:51:00